GFSSGP_prec_cloud_009.txt.gz
Cloud_Cover
4 8 100 100 98 51 65 80 100 32 98 26 79 95 90 21 5 6 97 88 100 100 100 90 98 100 100 100 100 100 100 100 100 100 60 41 49 98 100 100 100 99 19 4 5 4 5 4 2
64 67 57 60 21 12 3 54 85 88 83 41 93 99 72 68 38 25 76 100 87 83 100 75 100 72 96 100 100 100 100 100 100 96 54 58 100 100 100 100 74 5 4 5 5 5 0 0 0
10 100 100 46 38 4 42 74 99 75 100 88 100 92 10 52 100 100 100 99 98 96 90 75 94 94 100 100 100 100 76 87 99 98 85 100 100 100 96 20 5 3 4 5 4 0 0 0 0
97 100 100 100 100 41 91 99 5 10 5 96 99 99 87 7 22 74 78 100 96 100 100 100 59 100 71 59 70 100 100 100 100 100 100 100 100 5 5 0 3 0 3 5 0 0 0 4 19
10 7 100 100 100 99 20 5 4 5 5 5 50 86 89 7 5 0 3 43 86 94 100 100 100 100 100 100 100 100 100 100 100 98 54 0 5 5 2 1 5 4 4 4 2 0 5 25 49
15 5 17 74 100 67 99 37 43 0 4 4 3 5 29 1 3 1 4 3 5 44 75 91 100 100 61 42 86 84 34 14 0 0 0 0 0 6 5 6 5 5 5 5 5 0 4 5 28
7 19 3 0 5 5 4 7 7 7 14 26 4 53 75 9 5 4 5 17 92 90 50 51 41 19 2 0 0 0 0 0 0 0 1 0 1 5 5 5 5 5 10 88 8 4 0 5 4
40 29 5 5 3 5 2 3 82 86 99 93 86 56 100 84 97 100 100 100 98 100 100 73 43 0 0 0 0 0 1 0 1 0 0 4 1 5 71 5 5 88 10 96 5 0 3 0 5
100 88 12 5 5 0 4 15 3 0 56 96 100 79 63 35 80 81 81 65 30 30 27 25 10 9 11 0 3 5 4 13 3 0 0 0 0 0 2 5 18 74 71 80 24 18 9 12 0
19 5 69 6 4 3 0 2 0 0 0 0 0 0 0 0 0 2 36 62 65 52 40 19 22 16 14 3 0 2 0 0 0 0 0 0 0 0 5 10 6 8 5 99 10 52 59 9 3
5 37 90 43 0 0 0 0 0 0 0 0 0 0 0 0 0 0 0 3 3 1 3 5 16 16 13 13 26 36 31 25 18 0 1 2 0 0 5 17 6 12 24 14 30 41 94 100 22
72 12 0 3 3 0 0 0 0 0 0 4 5 4 4 10 0 0 0 0 0 0 0 0 0 10 8 19 29 26 35 33 31 20 2 14 16 1 5 91 43 92 5 6 5 71 58 73 59
2 5 0 3 2 1 1 3 0 0 0 4 5 5 6 5 5 0 0 0 0 0 0 0 0 0 0 12 16 13 21 21 17 34 21 16 49 10 19 59 92 83 29 6 38 100 76 21 66
5 10 4 0 0 0 0 0 0 0 0 2 4 4 3 3 0 0 0 0 0 0 0 0 0 0 0 1 0 3 0 6 2 8 0 2 7 18 37 79 98 96 72 38 47 9 14 99 91
49 1 0 0 1 5 0 0 0 0 0 0 0 0 0 0 0 0 0 0 0 0 0 0 0 0 0 0 0 3 1 7 0 0 0 1 5 4 0 5 64 100 27 79 34 69 100 100 67
4 4 0 5 5 21 0 0 0 0 0 0 0 0 0 0 0 0 0 0 0 0 0 0 0 0 0 0 0 0 1 0 0 0 0 15 0 0 1 26 21 0 7 9 4 0 0 28 84
1 0 0 4 56 14 4 2 0 0 0 0 0 0 0 0 0 0 0 0 0 0 0 0 0 0 0 0 0 2 0 0 0 0 0 0 0 0 0 26 11 8 18 16 1 1 10 12 2
1 4 0 0 0 5 5 4 0 0 0 0 0 0 0 0 0 0 0 0 0 0 0 0 0 0 0 0 4 1 0 0 0 6 3 0 0 0 4 4 31 7 12 11 20 33 11 16 19
0 5 2 5 3 4 4 1 0 0 0 0 0 0 0 0 0 0 0 0 0 0 0 0 0 0 4 10 14 13 10 0 0 0 0 0 0 0 0 0 0 0 0 0 0 3 4 2 1
0 5 14 96 5 76 98 11 0 4 0 2 3 0 0 0 0 0 0 0 0 0 0 0 0 0 0 0 0 0 0 0 0 0 0 0 0 0 0 0 0 0 0 0 0 0 1 5 15
4 0 9 4 32 96 98 69 1 13 3 4 5 4 0 0 0 0 0 0 0 0 0 0 0 0 0 0 0 2 2 0 0 3 2 0 0 0 0 0 0 0 0 0 0 0 0 0 2
0 0 5 96 8 1 0 4 5 89 5 1 90 5 0 0 5 2 0 0 0 0 0 0 0 0 0 0 3 0 14 4 2 0 0 0 0 0 0 0 0 0 0 0 0 0 0 0 0
0 6 61 5 0 0 0 2 0 5 0 0 63 24 4 2 4 0 0 0 0 0 0 0 0 0 0 0 1 12 0 0 0 0 0 0 0 0 0 0 0 0 0 0 0 0 0 0 0
0 94 61 5 5 0 0 0 0 0 0 0 0 0 5 5 4 0 0 0 0 0 0 0 0 0 0 0 0 0 0 0 1 0 0 0 0 0 0 0 0 1 5 0 0 0 2 0 3
0 86 10 1 0 0 0 0 0 0 0 0 0 0 0 0 0 0 0 0 0 0 0 0 0 0 0 0 0 0 0 0 0 0 0 0 0 0 3 4 2 3 3 0 0 0 5 3 3
0 26 2 0 0 0 0 0 0 0 4 0 0 0 0 0 0 0 0 0 0 0 0 0 0 0 0 0 0 0 0 0 0 0 0 0 0 3 5 5 5 3 4 0 0 4 31 6 4
0 0 0 0 0 0 0 0 0 0 54 2 0 0 0 0 0 0 0 0 15 70 4 0 0 0 0 0 0 0 0 0 0 1 5 5 5 10 5 5 5 5 5 5 3 1 5 5 7
0 0 0 0 0 0 0 0 0 0 2 3 0 0 0 0 0 0 0 0 0 0 0 0 0 11 52 0 5 29 11 3 2 7 5 3 56 98 11 5 5 5 5 10 5 5 5 10 7
0 0 0 0 0 0 0 0 0 0 0 0 5 0 0 0 0 0 0 0 0 0 0 0 0 18 72 81 0 18 0 3 5 40 6 99 59 21 17 59 80 66 19 78 6 5 5 10 5
0 0 0 0 0 0 0 0 0 0 0 3 38 6 1 0 0 0 0 0 0 0 0 0 0 0 11 31 0 0 10 5 5 91 100 100 100 100 86 100 100 100 100 100 7 18 99 19 5

GFSSGP_prec_cloud_015.txt.gz
Cloud_Cover
100 49 54 100 5 5 5 5 5 10 59 25 15 66 80 56 9 79 58 35 96 97 76 100 77 100 100 100 94 97 100 100 100 100 100 100 30 34 100 100 100 6 0 0 2 4 0 0 0
13 68 87 99 38 5 0 5 5 2 5 5 5 5 27 74 29 10 40 99 88 94 92 77 37 33 76 100 100 100 51 70 99 98 92 100 100 100 100 73 12 2 0 4 5 3 0 0 0
59 100 100 6 40 80 3 3 76 3 4 5 2 12 32 34 66 80 71 39 11 32 41 58 100 66 5 100 100 96 37 87 98 99 100 100 100 46 5 5 0 3 0 0 5 1 0 0 0
97 6 24 34 4 52 5 5 5 66 5 28 74 55 30 100 100 100 100 100 84 46 92 89 100 99 14 100 100 100 100 100 100 100 62 3 0 1 5 5 0 3 0 2 5 0 0 0 0
88 91 92 98 86 75 5 5 5 97 99 100 100 98 8 82 51 93 46 76 100 100 79 85 32 4 43 35 98 97 48 5 13 0 2 5 2 5 5 4 0 3 2 5 22 3 2 0 4
5 9 97 75 97 52 3 5 81 15 1 37 78 56 98 10 3 5 11 17 2 27 47 40 0 3 5 7 100 90 9 1 0 0 0 5 40 5 5 4 5 5 5 5 78 5 5 2 48
5 5 6 91 88 55 97 97 1 1 5 4 5 4 56 16 15 4 5 4 13 18 33 47 35 73 76 94 14 0 0 0 0 0 0 5 5 5 5 5 4 33 6 17 48 14 5 61 6
5 5 4 5 5 10 5 3 41 5 0 0 0 4 11 24 2 1 0 11 17 33 34 31 28 34 6 1 0 0 0 0 0 0 0 0 0 0 1 6 5 5 5 100 100 92 34 31 6
5 5 5 4 5 3 2 5 2 0 0 0 0 0 1 9 69 10 7 34 58 48 32 31 18 18 17 16 2 0 0 0 0 0 0 0 0 0 0 2 5 16 59 100 100 100 80 28 46
5 3 3 3 1 1 5 0 0 0 0 0 0 0 0 5 10 44 0 6 15 26 32 38 26 0 0 0 0 0 0 0 0 0 0 0 0 4 0 0 1 4 26 100 100 100 90 80 100
5 1 0 0 0 0 26 27 0 0 0 0 0 0 0 0 0 0 0 0 0 0 1 9 34 13 4 3 5 22 0 0 0 0 0 0 0 1 5 0 5 5 5 7 24 34 67 100 100
4 3 0 0 0 0 0 0 0 0 4 20 0 0 0 0 0 0 4 0 0 0 0 0 0 18 6 0 0 0 0 0 0 0 0 0 5 4 0 0 0 0 0 0 0 0 0 0 0
5 0 0 0 0 0 0 3 0 1 1 8 42 54 8 1 5 5 0 0 0 0 0 0 1 0 16 16 0 0 0 0 0 0 0 0 0 45 14 0 2 0 0 0 1 0 0 0 0
1 0 0 0 0 0 0 0 0 0 2 1 2 6 5 3 0 0 0 0 0 0 0 0 0 9 14 5 8 0 0 0 0 1 2 0 1 11 5 1 5 0 0 0 0 0 0 0 0
2 0 0 0 0 0 0 0 0 0 0 0 0 0 0 0 0 0 0 0 0 0 0 0 0 0 8 0 0 0 0 0 0 0 65 3 26 0 0 1 0 0 0 0 1 3 3 0 0
0 0 0 0 0 0 0 0 0 0 0 0 0 0 0 0 0 0 0 0 0 0 0 0 0 0 0 0 0 0 0 0 11 0 2 0 0 1 0 1 0 0 0 0 0 8 1 5 0
0 0 0 0 0 0 0 0 0 0 0 0 0 0 0 0 0 0 0 0 0 0 0 0 0 0 0 0 0 0 2 0 0 0 1 0 2 0 0 0 0 0 0 0 0 0 0 0 0
0 0 0 0 0 0 0 0 0 0 0 0 0 0 0 0 0 0 0 0 0 0 0 0 0 0 0 0 15 1 0 0 0 1 0 0 0 0 0 0 1 0 2 0 0 0 0 0 0
0 0 0 5 5 5 5 0 0 0 0 0 0 0 0 0 0 0 0 0 0 0 0 0 0 0 0 0 2 2 0 0 0 0 0 0 0 0 0 0 0 0 0 0 0 3 5 5 5
0 0 0 0 5 5 5 5 1 0 0 0 0 0 0 0 0 0 0 0 0 0 0 0 0 0 0 0 0 0 0 0 1 0 0 0 0 0 0 0 0 0 0 0 5 9 5 1 16
0 0 0 0 5 5 5 4 0 0 2 0 0 0 0 0 0 0 1 0 0 0 0 0 0 0 0 0 8 26 4 2 0 1 0 0 0 0 0 0 0 0 0 0 5 10 5 5 18
0 0 0 0 0 0 5 1 5 4 0 0 0 0 0 0 0 0 0 0 0 0 0 0 0 0 0 0 0 0 0 2 20 0 0 0 0 0 0 0 0 0 0 5 5 26 16 6 35
0 0 0 0 0 0 1 0 0 5 1 0 0 0 0 0 0 0 0 0 0 0 0 0 0 0 0 0 0 0 0 2 5 0 0 6 0 0 0 0 0 0 4 3 21 64 5 5 35
0 0 0 0 3 3 0 0 0 0 2 1 0 0 0 0 0 0 0 0 0 0 0 0 0 0 0 0 0 0 0 0 0 0 0 0 0 0 0 0 0 5 5 5 29 5 22 27 5
0 0 0 0 2 1 0 0 0 0 0 0 0 1 3 0 0 0 0 0 0 0 0 0 0 0 0 0 0 0 0 0 0 0 0 0 0 0 0 0 5 5 6 94 67 48 39 6 36
0 0 0 0 0 0 0 0 0 0 0 0 0 0 0 0 0 0 0 0 0 0 0 0 0 0 0 0 0 0 0 0 0 0 0 0 0 0 0 0 2 0 10 57 100 60 23 6 7
0 1 0 0 0 0 0 0 0 0 0 0 0 0 0 0 0 5 0 0 0 0 0 0 0 0 0 0 0 1 5 40 0 0 0 99 16 1 4 14 25 5 5 3 5 7 86 100 19
0 0 2 0 0 2 0 0 0 0 0 0 0 0 1 0 1 3 0 0 0 0 0 0 0 0 0 0 0 2 22 1 54 38 3 51 38 23 65 48 37 5 12 89 12 27 93 73 11
0 0 4 1 0 0 0 0 0 0 0 0 0 0 0 2 0 0 0 0 0 0 0 0 0 0 0 0 0 0 1 97 59 21 38 0 70 99 100 98 31 37 75 100 100 89 6 11 37
0 0 0 0 0 0 0 0 0 0 0 0 0 0 0 0 0 0 0 0 0 0 0 0 0 0 0 0 0 0 9 20 6 88 23 93 99 100 100 100 100 100 100 94 100 77 96 99 88

GFSSGP_prec_cloud_021.txt.gz
Cloud_Cover
5 5 87 94 100 88 79 54 100 100 86 100 100 100 100 100 95 71 74 92 100 86 63 5 14 5 5 18 100 100 100 100 94 90 73 18 100 100 68 0 7 5 5 0 0 5 4 5 5
1 16 66 39 92 100 100 46 100 88 77 36 48 91 99 99 32 50 100 97 89 99 90 24 100 23 13 100 100 89 5 1 0 65 100 100 71 1 2 5 8 5 0 0 2 5 5 0 5
4 4 53 61 100 100 100 100 48 9 43 100 42 76 74 100 27 50 40 100 100 100 89 4 66 100 100 100 88 6 5 2 5 97 21 0 0 0 0 5 5 0 0 4 5 5 5 5 0
100 92 46 99 26 15 88 100 45 47 6 23 28 52 49 77 99 49 87 79 100 95 98 100 5 5 70 88 99 11 10 22 90 1 0 0 0 0 0 0 0 0 5 5 5 5 5 5 5
20 62 84 35 71 77 100 98 100 100 35 43 14 67 65 100 99 88 99 100 100 100 100 100 100 100 100 10 6 5 5 10 0 0 0 0 0 0 0 0 1 24 5 6 9 44 5 5 2
72 96 100 99 100 68 21 26 59 89 74 15 12 14 86 45 47 80 55 100 97 86 79 29 100 41 7 6 9 4 0 0 0 0 0 0 0 0 0 0 5 18 5 96 20 48 4 5 5
68 100 100 92 52 5 5 5 76 15 5 20 0 34 9 42 50 63 69 85 100 43 82 16 4 5 4 9 0 0 0 0 0 0 0 0 0 0 0 0 0 2 4 7 76 9 83 5 5
99 74 98 94 65 5 0 5 5 5 28 5 30 4 5 14 16 34 68 75 23 54 32 42 18 2 18 11 0 0 0 0 0 0 0 0 0 0 0 4 0 0 3 5 5 73 35 5 81
8 65 100 96 98 2 4 5 35 5 17 5 49 5 1 0 6 32 43 58 36 59 13 32 42 20 1 18 0 0 0 0 0 0 0 0 33 67 33 0 0 0 0 0 0 0 0 2 78
89 100 98 25 100 9 5 5 5 3 0 0 0 0 0 0 0 2 20 5 93 44 86 100 40 30 19 51 0 1 0 1 1 2 5 0 99 38 41 0 4 0 0 0 0 0 0 26 83
68 92 66 2 24 90 2 5 5 5 1 0 0 0 0 0 0 0 5 10 6 3 0 39 96 0 22 99 4 21 14 24 5 25 20 9 80 30 26 100 94 96 6 98 21 22 9 96 86
8 75 89 100 2 97 5 44 5 2 26 1 0 0 0 0 0 0 0 0 1 5 1 0 0 0 2 34 19 43 61 32 43 12 5 9 5 6 13 48 98 72 100 40 64 31 43 13 83
5 79 23 4 2 27 47 50 6 4 1 0 0 0 0 0 0 0 2 0 0 0 0 0 1 0 0 15 18 77 81 16 58 42 82 100 66 58 7 72 52 59 100 100 100 100 90 62 100
18 4 5 1 4 5 59 28 4 3 0 0 0 0 0 2 4 4 0 0 0 0 0 0 2 0 0 5 18 1 9 100 22 93 100 100 100 77 72 100 92 100 100 98 12 36 22 26 81
5 0 4 0 5 5 4 13 5 2 0 0 0 0 1 2 0 0 0 0 0 0 0 0 0 5 6 2 6 17 83 22 100 100 75 13 66 0 1 4 0 75 100 57 0 4 32 68 0
0 4 55 13 1 3 0 22 0 1 0 0 0 0 0 0 0 0 0 0 0 0 0 0 0 0 0 20 28 30 69 100 100 100 95 94 87 8 5 11 44 100 96 100 97 55 100 28 0
3 8 13 100 1 3 1 100 4 0 0 2 0 0 0 0 0 0 0 0 0 0 0 0 0 0 0 3 10 25 59 100 30 100 99 27 61 54 27 82 99 66 34 5 4 94 67 0 0
20 5 66 24 3 5 0 94 8 0 0 0 0 0 0 0 0 0 0 0 0 0 0 0 0 0 0 3 4 64 2 4 35 94 100 99 21 100 70 46 29 0 2 33 40 34 0 0 0
5 100 85 100 7 1 5 34 2 0 0 0 0 0 0 0 0 0 0 0 0 0 0 0 0 0 0 8 34 11 0 3 5 8 0 13 72 12 8 12 92 0 4 100 1 0 0 0 39
4 100 92 100 75 52 41 94 100 0 0 0 4 0 0 0 0 0 0 0 0 0 0 0 0 0 0 17 0 7 38 5 33 78 86 100 63 91 39 5 80 85 72 0 0 0 0 0 8
0 30 100 89 72 64 86 94 99 90 1 0 0 0 0 0 0 0 0 0 0 0 0 0 0 0 0 0 8 0 0 1 3 18 8 0 1 26 4 29 12 8 0 0 0 4 0 8 7
0 4 73 100 68 100 5 99 73 33 5 0 0 0 0 0 0 0 0 0 0 0 1 1 0 0 0 0 16 2 14 0 0 0 5 1 0 0 1 0 0 0 0 0 3 3 15 0 6
0 5 5 75 100 100 67 78 99 100 36 5 0 0 0 0 0 0 0 0 0 0 0 0 0 0 0 0 0 2 0 0 0 0 0 0 0 0 0 0 0 0 0 2 5 0 0 8 0
0 4 17 32 100 81 100 82 12 100 100 14 33 1 0 0 0 0 0 0 0 0 0 0 0 0 0 0 0 0 0 0 0 0 0 0 0 0 0 0 0 0 58 18 5 2 1 0 0
0 0 16 98 100 52 100 83 100 50 42 42 2 88 2 0 0 0 0 0 0 0 0 0 0 0 0 0 0 0 0 0 0 27 0 0 0 0 0 0 0 22 100 92 12 5 7 3 3
0 0 3 8 90 98 99 100 41 86 44 100 99 58 100 28 0 0 0 0 0 0 0 0 0 0 0 0 0 0 0 0 0 0 0 0 0 0 0 0 0 68 100 99 100 98 21 7 5
0 0 0 5 83 96 99 56 96 100 96 37 4 2 5 51 0 0 0 0 0 0 0 0 0 0 0 0 0 0 0 0 0 0 0 1 2 0 0 0 0 8 100 100 100 93 51 56 60
0 0 0 1 47 100 99 87 82 83 1 5 5 5 5 3 4 0 0 0 0 0 0 0 0 0 0 0 0 0 0 0 0 0 0 0 2 1 0 0 5 68 100 100 100 100 91 5 25
4 0 0 3 5 48 100 100 100 100 49 3 0 1 5 5 70 0 0 0 0 0 0 0 0 0 0 0 0 0 0 0 0 0 0 0 4 2 0 5 2 5 100 100 100 100 100 87 68
5 0 0 2 0 5 78 100 100 61 69 5 5 65 87 81 14 4 0 0 0 0 0 0 0 0 0 0 0 0 0 0 0 0 0 0 0 0 0 5 0 48 100 100 97 100 99 99 100

GFSSGP_prec_cloud_024.txt.gz
Cloud_Cover
5 5 52 100 100 100 100 62 81 100 100 100 100 100 100 100 100 87 80 83 68 60 76 90 95 87 52 14 34 100 62 5 5 0 1 25 74 0 0 0 0 1 1 7 7 5 6 9 5
5 13 98 100 100 100 100 75 90 85 5 98 100 100 65 93 75 83 89 94 73 31 6 5 4 5 4 100 100 34 52 27 4 5 68 4 0 0 0 0 5 0 0 4 11 5 5 5 5
0 8 100 100 100 100 100 99 45 83 98 98 46 92 6 46 54 74 94 100 99 42 4 4 0 12 92 20 7 98 97 94 0 4 1 0 0 0 0 0 0 0 4 32 21 6 5 5 2
37 94 72 98 100 100 100 78 62 17 10 31 21 27 14 14 5 5 97 94 70 34 37 63 100 100 77 89 100 100 42 0 1 0 0 0 0 0 0 5 0 5 3 5 5 90 12 5 5
12 100 100 100 96 85 15 19 100 98 100 90 5 99 62 10 52 67 81 96 100 100 73 100 100 100 100 100 80 1 2 0 0 0 0 0 0 0 0 0 0 0 4 31 11 3 4 4 3
63 85 64 100 5 83 21 29 97 88 35 23 32 100 99 74 83 8 100 100 100 100 100 100 36 62 5 2 0 2 0 0 0 0 0 0 0 0 0 0 0 0 0 2 3 4 5 5 5
19 9 38 90 46 28 5 39 83 31 37 35 99 75 93 71 33 24 47 90 64 13 0 1 10 3 0 0 0 0 0 0 0 0 0 0 0 0 0 0 0 0 0 0 2 4 5 5 5
100 100 96 100 100 96 100 70 97 4 100 3 74 24 99 85 4 0 0 54 38 49 5 5 5 0 0 0 0 0 0 0 0 0 0 4 23 1 0 3 0 0 0 0 0 0 2 3 0
100 99 54 100 100 45 46 4 35 86 2 71 21 72 11 5 75 12 52 12 5 96 12 0 3 0 0 0 0 0 0 0 0 0 0 18 100 11 76 0 0 0 0 0 27 100 32 0 0
72 100 92 15 100 10 4 1 0 4 5 23 31 29 0 2 57 77 56 38 0 6 0 16 0 0 1 0 0 0 0 0 0 0 0 0 92 20 8 17 0 1 0 6 100 100 91 16 0
100 100 100 5 78 76 6 3 5 27 1 3 46 0 0 0 17 16 2 0 0 16 0 0 0 0 0 1 0 0 0 2 9 5 5 15 100 69 94 40 0 98 2 55 52 91 21 39 13
77 100 95 100 31 3 33 13 0 55 65 1 0 0 0 0 0 0 47 0 28 0 7 100 0 4 40 76 4 0 0 0 53 24 84 56 36 6 45 90 38 99 100 76 62 30 95 5 53
94 15 70 99 2 16 97 73 0 19 90 3 0 0 0 0 0 0 11 0 0 0 32 100 0 0 45 93 1 100 100 100 28 49 99 99 5 100 74 6 50 60 95 100 27 38 39 1 17
82 38 78 84 9 4 78 68 0 0 3 0 0 0 0 0 0 0 2 0 0 0 39 13 0 0 0 0 61 39 36 6 80 66 100 9 1 2 16 90 55 2 99 100 25 0 0 0 0
10 97 34 3 0 5 26 98 3 0 1 5 0 0 0 0 0 0 0 0 0 0 0 0 0 0 0 5 4 2 0 0 63 90 1 61 4 0 0 1 0 16 26 100 60 2 0 98 99
0 18 16 56 73 3 0 100 15 2 0 0 0 0 0 0 0 0 0 0 0 0 0 0 0 0 0 0 0 0 0 99 71 10 67 100 26 3 3 0 20 100 100 91 0 0 53 100 39
0 3 7 100 81 45 0 94 100 52 0 2 0 0 0 0 0 0 0 0 0 0 0 0 0 27 0 0 0 0 18 100 3 100 72 4 42 3 3 0 54 72 45 0 0 0 68 22 0
0 4 12 49 20 62 48 100 92 9 30 0 0 0 0 0 0 0 0 0 0 0 0 0 0 3 64 0 0 45 62 97 50 100 7 74 91 0 8 64 85 0 0 0 0 40 20 0 0
0 50 10 100 74 100 100 87 100 3 72 0 3 0 0 0 0 0 0 0 0 0 0 0 0 0 5 0 0 0 0 0 0 7 82 41 0 0 0 0 0 22 0 1 82 3 0 0 79
0 25 85 100 70 55 89 4 0 88 0 0 0 0 0 0 0 0 0 0 0 0 0 0 0 0 0 0 0 0 4 10 19 16 80 89 35 23 98 0 0 6 89 72 5 0 0 0 32
0 0 19 99 85 44 82 87 2 24 1 0 0 0 0 0 0 0 0 0 0 0 0 0 0 0 0 0 0 0 10 11 100 88 98 30 0 0 90 0 0 18 0 0 0 0 0 0 39
0 0 10 100 100 4 93 96 2 94 14 0 0 0 0 0 0 0 0 0 0 0 0 0 0 0 0 0 0 0 0 0 17 16 9 16 0 15 99 0 25 0 0 0 1 0 0 0 42
0 0 0 87 99 100 54 97 22 100 89 11 0 0 0 0 0 0 0 0 0 0 0 0 0 0 0 0 0 0 0 0 56 4 14 0 0 0 32 1 0 0 0 1 5 2 0 3 1
0 0 0 4 74 89 13 78 62 10 100 100 82 1 0 0 0 0 0 0 0 0 0 0 0 0 0 0 0 0 3 0 1 24 0 0 0 0 0 0 0 0 0 0 5 6 6 9 27
0 0 0 0 16 48 92 100 12 100 99 93 100 99 5 0 0 0 0 0 0 0 0 0 0 0 0 0 0 0 0 0 0 0 0 0 0 0 0 0 0 0 0 6 97 75 97 12 44
2 0 0 0 0 5 0 46 9 64 4 97 100 90 96 8 0 44 0 0 0 0 0 0 0 0 0 0 0 0 0 0 0 0 0 0 0 0 0 0 0 0 0 0 6 11 11 48 95
21 0 0 0 3 5 20 68 0 27 53 27 62 97 100 87 23 0 0 0 0 0 0 0 0 0 0 0 0 0 0 0 0 0 0 0 0 0 0 0 0 0 0 11 99 76 35 59 32
0 51 1 0 1 2 1 29 100 73 4 100 99 99 87 100 5 2 0 0 0 0 0 0 0 0 0 0 0 0 0 0 0 0 0 0 0 0 0 0 0 0 0 6 54 99 78 33 93
0 0 0 0 0 0 0 1 2 88 67 54 10 99 89 76 0 5 0 0 0 0 0 0 0 0 0 0 0 0 0 0 0 0 0 0 0 0 0 0 0 0 1 4 5 60 100 94 32
0 0 0 0 0 0 0 0 86 100 97 88 10 100 73 0 0 0 2 0 0 0 0 0 0 0 0 0 0 0 0 0 0 0 0 0 0 0 0 0 0 0 0 4 0 2 72 100 97

GFSSGP_prec_cloud_030.txt.gz
Cloud_Cover
69 74 93 99 86 97 97 100 100 100 100 100 100 98 100 81 97 77 92 66 28 5 5 5 4 5 3 0 0 0 5 18 15 94 20 0 0 0 0 0 0 5 5 14 7 11 6 5 5
83 36 100 84 99 50 75 80 64 100 100 100 100 100 100 95 100 100 92 86 100 11 33 1 1 1 0 0 5 32 89 85 60 10 0 0 0 0 0 0 5 4 31 50 4 11 2 4 5
53 98 100 100 100 81 82 100 100 72 73 98 93 100 100 92 100 15 8 22 0 3 0 3 0 3 5 51 65 80 100 60 0 0 0 0 1 0 0 2 0 2 0 3 5 2 0 0 4
99 73 100 100 100 100 100 99 100 93 100 100 81 85 88 40 4 3 2 0 0 0 0 2 28 5 61 24 95 79 7 0 0 0 0 0 0 0 0 0 0 9 0 0 5 5 5 0 0
84 100 100 100 100 100 100 100 58 87 100 100 73 34 32 4 1 1 0 0 2 38 1 38 16 57 66 59 1 0 0 0 0 0 0 0 0 0 0 0 0 0 0 0 0 0 0 0 0
73 100 100 100 100 100 100 100 99 100 100 100 89 26 2 0 0 0 87 16 0 1 4 2 1 3 1 0 0 0 0 0 0 0 0 0 0 0 0 0 8 0 0 2 3 0 0 5 1
100 100 100 100 100 100 100 99 100 100 100 35 6 5 6 0 0 0 0 0 0 0 5 1 0 0 0 0 0 0 0 0 0 4 4 0 0 0 0 1 11 5 1 1 3 2 73 2 5
100 100 100 100 100 100 100 100 100 94 24 2 0 5 8 0 0 0 0 0 0 0 0 0 0 0 0 0 0 0 0 0 0 5 5 3 0 0 0 0 0 0 5 1 0 0 0 97 96
83 100 100 100 100 100 100 78 59 20 2 0 1 0 0 0 0 0 0 0 0 0 0 0 0 8 0 0 0 0 0 0 2 39 5 0 0 3 1 55 9 0 5 2 0 0 0 0 11
82 97 100 100 100 52 10 41 98 91 4 0 4 0 0 0 0 0 0 0 0 4 0 0 0 0 0 0 0 0 0 0 0 3 5 2 0 0 0 18 11 1 14 4 4 0 0 4 1
84 84 98 43 93 5 9 5 0 2 0 0 0 0 0 0 0 0 0 0 0 0 0 0 0 0 0 0 0 0 0 0 2 2 0 0 0 0 0 44 0 2 8 2 0 5 5 1 0
7 56 100 99 62 5 5 4 0 2 0 0 0 0 0 0 0 0 0 0 0 0 0 0 0 0 0 0 0 0 0 5 5 0 0 0 0 0 0 12 1 6 1 4 17 1 0 1 0
15 15 70 62 84 19 5 45 6 3 2 0 0 0 0 0 0 0 0 0 0 0 0 0 0 0 0 0 0 0 0 0 0 0 0 0 0 0 26 50 65 11 88 54 34 2 0 0 0
0 5 13 68 99 80 26 100 5 5 1 0 0 0 0 0 0 0 0 0 0 0 0 0 0 0 0 0 0 0 0 59 27 88 0 100 0 0 0 0 7 8 17 72 56 0 0 0 98
0 0 0 6 7 100 20 12 48 10 64 0 0 0 0 0 0 0 0 0 0 0 0 0 0 0 0 0 0 0 97 100 95 0 2 1 0 0 0 0 0 0 0 0 26 0 0 42 12
0 0 0 0 4 8 29 7 0 1 21 0 0 0 0 0 0 5 0 0 0 0 0 0 0 0 0 0 0 6 92 22 4 0 0 0 21 0 0 0 0 0 84 61 79 0 0 2 0
0 0 0 0 76 16 18 59 2 1 2 0 0 0 0 0 0 0 0 0 0 0 0 0 0 0 0 0 0 0 0 0 0 0 0 0 0 0 0 0 0 0 2 61 0 0 0 9 0
0 0 0 0 51 4 5 12 5 6 80 81 0 0 0 0 0 0 0 0 0 0 0 0 0 0 0 0 0 0 0 0 0 0 0 15 0 0 24 7 0 0 0 0 0 0 4 0 0
0 0 0 3 19 84 94 22 84 5 5 2 0 0 0 0 0 0 0 0 0 0 0 0 0 0 0 0 0 0 0 0 0 0 0 100 14 5 1 0 0 0 0 0 0 0 0 0 0
0 0 0 0 1 5 39 16 37 20 5 0 1 0 0 0 0 0 0 0 0 0 0 0 0 0 0 0 0 0 0 0 0 0 0 0 0 61 0 0 0 0 0 0 0 0 0 0 0
0 0 0 0 0 3 72 78 7 6 5 4 1 0 0 0 0 0 0 0 0 0 0 0 0 0 0 0 0 0 0 0 0 0 0 0 38 9 0 0 0 0 0 0 0 0 0 0 0
0 0 3 2 4 33 47 62 39 5 51 6 0 1 0 0 0 0 0 0 0 0 0 0 0 0 0 0 0 0 0 0 0 0 0 0 1 0 0 0 0 0 0 0 0 0 0 4 0
0 0 0 3 0 0 41 4 5 66 5 5 0 0 0 0 0 0 0 0 0 0 0 0 0 0 0 0 0 0 0 0 0 0 0 0 0 0 0 0 0 0 0 0 3 5 5 2 0
0 0 0 4 32 1 0 0 1 3 2 0 3 4 0 0 0 0 0 0 0 0 0 0 0 0 0 0 0 0 0 0 0 0 0 1 0 0 0 0 0 0 0 0 1 2 2 0 2
0 0 0 0 2 0 0 2 0 0 1 0 4 0 0 4 4 0 0 0 0 0 0 0 0 0 0 0 0 0 0 0 0 0 0 0 0 0 0 0 0 0 0 0 0 0 0 0 0
0 0 0 0 0 0 0 1 0 4 1 5 3 0 4 2 5 2 0 5 0 0 0 0 0 0 0 0 0 0 0 0 0 0 0 0 0 0 0 0 0 0 0 0 0 0 0 0 0
0 0 0 0 0 0 0 0 0 0 5 0 2 5 19 76 16 100 80 14 0 0 0 0 0 0 0 0 0 0 0 0 0 0 0 0 0 0 0 0 0 0 0 0 0 0 0 0 11
0 0 0 0 0 0 0 0 5 0 0 0 0 1 1 62 24 100 97 71 58 0 0 0 0 0 0 0 0 0 0 0 0 0 0 0 0 0 0 0 0 0 0 0 0 0 0 0 1
0 0 0 0 0 0 0 0 4 3 0 0 0 5 12 4 12 100 100 100 95 1 0 0 0 0 0 0 0 0 0 0 0 0 0 0 0 0 0 0 0 0 0 0 0 0 1 5 2
0 0 0 0 0 0 0 20 0 0 2 5 5 19 83 72 72 100 100 100 100 6 0 0 0 0 0 0 0 0 0 0 0 0 0 0 0 0 0 0 0 0 0 1 0 2 2 5 3

GFSSGP_prec_cloud_033.txt.gz
Cloud_Cover
41 91 46 91 82 100 95 6 5 16 52 43 91 63 100 100 100 100 93 100 100 100 100 100 91 3 4 0 0 4 3 39 94 92 0 0 0 0 0 2 0 0 0 0 8 2 5 39 97
89 67 8 5 64 92 48 5 5 46 62 80 81 100 100 100 100 100 100 100 100 39 85 45 3 0 0 2 4 56 100 64 85 1 2 3 0 0 0 2 0 0 0 4 3 0 0 5 69
66 100 85 16 82 80 61 86 6 30 50 25 19 41 59 100 85 64 100 82 94 5 0 1 0 1 0 5 97 24 5 0 0 0 2 0 0 0 0 0 6 2 3 5 81 1 0 4 15
98 68 78 100 100 41 36 99 85 86 19 2 27 72 19 8 48 34 61 5 4 0 0 0 0 5 5 10 1 0 4 0 0 0 0 0 0 0 0 2 12 0 1 5 6 5 3 0 0
100 82 70 100 100 89 34 77 63 100 5 42 93 100 52 49 37 32 15 0 0 0 0 2 4 1 0 0 0 0 0 0 0 0 0 0 0 0 3 0 9 0 0 4 5 5 2 0 10
68 80 100 100 100 91 94 26 100 98 5 53 72 100 100 57 2 2 0 18 3 0 0 0 0 0 0 0 0 0 0 0 0 0 0 0 0 0 4 2 0 0 0 0 4 4 1 8 100
70 89 100 100 100 91 90 72 100 93 63 35 80 90 86 95 3 0 0 0 0 2 0 0 0 0 0 0 0 0 0 0 4 2 4 0 0 0 0 0 1 0 0 0 0 84 57 85 100
88 92 100 100 100 93 62 23 100 100 12 96 100 100 92 1 0 0 0 0 2 19 0 2 0 0 0 0 0 0 0 0 3 5 3 0 0 0 4 5 5 5 1 0 0 0 95 98 100
35 100 100 100 100 100 100 29 48 100 100 100 81 8 0 0 0 0 22 24 56 50 9 7 4 4 6 0 0 0 0 0 5 4 1 0 0 0 3 3 64 100 5 11 0 0 0 0 2
5 13 99 98 100 100 91 68 5 100 100 96 96 8 0 0 0 3 42 48 60 61 59 4 19 21 9 0 0 0 0 3 5 0 0 0 0 0 0 1 13 5 2 2 4 3 4 0 0
5 5 97 100 100 100 100 95 54 95 29 1 0 0 0 0 0 0 0 3 6 14 42 26 23 14 3 0 2 17 11 6 8 0 0 0 0 1 0 0 0 0 0 5 5 0 4 1 1
7 36 5 74 92 100 100 94 96 53 5 0 0 0 0 0 0 0 0 0 0 4 1 3 20 32 4 2 5 2 7 16 17 0 0 0 0 1 0 8 0 5 0 71 8 4 0 0 0
33 76 6 100 41 96 81 50 62 8 65 0 0 0 0 0 0 0 0 0 0 0 0 0 2 16 0 0 6 14 12 3 0 0 0 0 0 0 26 64 57 0 100 16 0 3 3 0 0
71 70 37 30 100 6 5 5 1 0 8 88 0 0 0 0 0 0 0 0 0 0 0 0 0 0 0 0 0 0 0 0 3 0 0 28 0 0 0 0 10 1 30 17 0 13 0 0 74
20 34 97 56 81 36 63 4 0 0 0 63 3 0 0 0 0 0 0 0 0 0 0 0 0 0 0 0 0 0 0 39 98 98 1 8 0 0 0 0 0 0 0 0 4 1 0 0 15
0 4 15 5 8 5 8 1 0 4 2 8 0 0 0 0 0 0 0 0 0 0 0 0 0 0 0 0 0 0 0 4 100 3 0 0 0 25 0 0 0 0 0 77 76 1 4 0 36
0 0 0 2 3 2 0 0 0 3 7 98 0 0 0 0 0 0 0 0 0 0 0 0 0 0 0 0 0 0 0 2 0 0 0 0 0 0 0 2 0 0 0 8 59 0 0 1 36
0 0 0 0 0 0 0 0 5 5 10 100 0 0 0 0 0 0 0 0 0 0 0 0 0 0 0 0 0 0 0 0 0 0 0 0 0 1 11 24 1 0 0 0 0 0 0 0 0
0 0 0 5 3 0 0 0 5 60 16 38 5 5 0 0 0 0 0 0 0 0 0 0 0 0 0 0 0 0 0 0 0 0 0 0 17 0 57 1 0 0 0 0 0 0 0 0 0
0 0 0 5 0 0 0 2 5 14 98 5 69 4 0 0 0 0 0 0 0 0 0 0 0 0 0 0 0 0 0 0 0 0 0 0 80 95 81 0 0 0 0 0 0 0 0 0 0
0 0 0 5 4 5 0 0 1 4 48 6 2 1 0 0 0 0 0 0 0 0 0 0 0 0 0 0 0 0 0 0 0 0 0 0 0 23 100 0 0 0 0 0 0 0 0 0 0
0 0 0 3 5 5 0 0 0 2 5 2 5 0 0 0 0 0 0 0 0 0 0 0 0 0 0 0 0 0 0 0 0 0 0 0 0 51 10 0 0 0 2 0 0 0 0 0 0
0 0 0 0 5 4 0 0 0 1 2 0 0 0 1 2 0 0 0 0 0 0 0 0 0 0 0 0 0 0 0 0 0 0 0 0 0 0 0 0 0 0 0 0 0 0 0 0 0
0 0 0 0 2 2 0 0 0 0 0 0 0 0 0 5 1 0 0 0 0 0 0 0 0 0 0 0 0 0 0 0 0 0 0 0 8 0 0 0 0 0 0 0 0 0 0 0 0
0 0 0 0 0 4 0 0 0 0 0 0 0 2 2 0 5 1 0 0 0 0 0 0 0 0 0 0 0 0 0 0 0 0 0 7 13 6 3 0 0 0 0 0 0 0 0 0 4
0 0 0 0 0 0 0 0 0 0 3 5 0 5 5 3 1 5 1 0 0 0 0 0 0 0 0 0 0 0 0 0 0 0 0 0 0 0 0 0 0 0 0 0 0 0 0 0 0
0 0 0 0 0 0 0 4 0 0 4 5 0 5 4 5 5 5 5 5 5 0 0 0 0 0 0 0 0 0 0 0 0 0 0 0 0 0 0 0 0 0 0 0 0 0 0 0 0
0 0 0 0 0 0 0 2 1 0 0 1 0 0 0 1 5 6 6 5 5 5 0 0 0 0 0 0 0 0 0 0 0 0 0 0 0 0 0 0 0 0 0 0 0 2 5 0 0
0 0 0 0 0 0 0 5 53 24 0 0 0 0 0 0 0 5 73 13 24 6 1 1 0 0 0 0 0 0 0 0 0 0 0 0 0 0 0 0 0 0 0 0 1 3 2 5 1
0 0 0 0 0 0 0 0 0 4 2 0 0 0 0 0 0 10 100 87 78 16 14 0 0 0 0 0 0 0 0 0 0 0 0 0 0 0 0 0 0 0 0 2 5 0 2 5 5

GFSSGP_prec_cloud_036.txt.gz
Cloud_Cover
100 84 82 100 91 100 66 26 93 87 60 76 100 64 74 97 58 100 100 100 100 100 100 100 100 48 1 0 5 1 5 0 0 0 0 0 0 0 0 0 0 0 0 2 4 2 5 15 42
77 45 56 28 65 75 51 53 6 63 79 100 100 9 42 77 72 100 98 100 100 100 100 100 50 3 0 0 4 4 0 0 0 0 0 0 2 2 0 0 0 4 11 11 0 2 4 100 100
5 15 5 94 100 64 9 23 90 86 98 91 6 5 37 95 82 55 23 91 100 31 6 11 0 0 0 0 0 0 0 0 0 0 7 0 1 0 0 0 0 5 0 2 0 2 2 0 27
24 32 77 98 73 70 57 60 5 6 12 5 21 17 42 35 17 24 70 100 95 6 0 0 0 0 0 0 0 0 0 0 4 0 0 0 0 0 0 0 13 0 0 5 1 0 0 0 0
72 98 77 94 74 33 6 54 17 5 6 5 5 88 75 96 99 56 43 4 2 4 0 0 0 0 0 0 1 10 0 0 0 0 0 0 0 0 0 0 13 1 0 11 0 5 5 100 13
21 37 91 98 90 86 36 6 63 83 46 20 55 15 46 14 36 48 7 0 0 0 0 8 0 0 0 0 0 0 0 0 0 0 0 0 0 0 0 0 4 1 10 2 5 24 5 14 53
5 33 64 100 95 100 66 2 5 25 34 100 60 96 99 96 88 72 0 0 0 0 0 0 0 2 3 0 0 0 0 0 0 0 4 0 0 1 0 2 4 0 0 4 3 4 5 100 99
6 52 55 68 66 99 100 99 100 92 92 100 100 100 92 64 100 36 0 0 1 9 0 0 0 0 0 0 0 0 0 0 0 0 0 0 4 4 1 4 5 0 4 2 5 0 0 70 100
15 100 98 100 99 62 100 100 80 13 6 23 100 100 100 100 99 17 14 24 45 34 26 8 0 0 0 0 0 0 0 3 2 0 0 0 0 1 5 70 87 5 43 5 6 1 0 0 0
5 100 41 14 100 53 6 14 5 4 4 5 21 5 50 69 20 47 52 54 46 42 60 20 12 14 13 0 0 0 5 5 0 0 0 0 0 0 5 0 3 2 0 0 1 5 0 2 0
5 13 49 64 10 100 99 100 100 99 91 96 100 100 8 30 35 42 45 5 14 16 56 35 16 25 12 0 1 5 0 0 0 0 0 0 1 5 5 0 0 0 2 4 0 18 0 0 0
5 5 17 99 62 31 55 12 8 54 100 100 100 99 8 16 32 37 48 7 24 43 59 30 27 44 24 10 14 9 10 7 10 0 0 0 0 6 5 0 0 0 0 0 0 8 2 0 0
5 98 84 49 72 0 2 11 9 22 56 23 38 5 1 0 0 0 0 0 0 30 58 32 41 56 30 16 22 22 22 13 1 0 0 0 0 0 14 53 53 0 71 0 0 4 0 0 0
5 60 65 46 73 0 0 0 4 4 5 13 0 2 0 0 0 0 0 0 0 0 2 7 32 45 25 5 16 15 12 1 0 0 0 0 0 0 1 0 9 0 0 0 0 7 0 0 98
5 5 12 5 18 0 0 0 0 0 26 56 88 0 1 0 0 0 0 0 0 0 0 0 2 26 21 0 0 6 0 0 0 0 4 51 0 1 0 0 0 0 0 0 0 17 0 0 20
5 5 2 5 0 0 8 0 0 5 5 89 97 0 0 0 0 0 0 0 0 0 0 0 0 2 0 0 0 0 0 0 0 71 100 2 0 1 2 0 0 0 0 0 99 0 0 0 56
0 0 4 5 5 5 0 0 2 8 12 66 98 0 0 0 0 0 0 0 0 0 0 0 0 0 0 0 0 0 0 0 0 91 0 15 9 1 0 0 8 10 0 0 0 1 0 0 12
0 0 0 2 5 0 0 0 5 5 26 72 50 0 0 0 0 0 0 0 0 0 0 0 0 0 0 0 0 0 0 0 0 0 0 0 0 0 0 100 38 0 0 0 0 0 0 0 0
0 0 0 0 5 0 0 0 5 24 30 5 5 4 0 0 0 0 0 0 0 0 0 0 0 0 0 0 0 0 0 0 0 0 0 0 0 0 0 50 6 0 0 0 0 0 0 0 0
0 0 0 0 1 0 0 4 2 1 16 39 98 100 2 0 0 0 0 0 0 0 0 0 0 0 0 0 0 0 0 0 0 0 0 0 1 7 23 45 4 0 0 0 0 0 0 0 0
0 0 0 0 5 2 0 0 4 48 1 8 5 57 9 0 0 0 0 0 0 0 0 0 0 0 0 0 0 2 0 2 0 0 0 0 0 13 83 100 0 0 0 0 0 0 0 0 0
0 0 0 0 0 2 3 0 0 28 2 5 5 1 2 0 0 0 0 0 0 0 0 0 0 0 0 0 0 0 0 0 0 0 0 0 0 0 0 80 0 0 0 0 0 0 0 0 0
0 0 0 0 0 0 3 0 0 0 0 5 5 4 0 0 0 0 0 0 0 0 0 0 0 0 0 0 0 0 0 0 0 0 0 0 0 0 0 0 0 0 0 0 0 0 0 0 0
0 0 0 0 0 5 0 0 0 0 4 2 0 0 0 0 0 0 0 0 0 0 0 0 0 0 0 0 0 0 0 0 0 0 0 0 0 0 0 0 0 0 0 0 0 0 0 1 0
0 0 0 0 0 99 0 0 0 1 1 0 0 1 3 3 0 0 0 0 0 0 0 0 0 0 0 0 0 0 0 0 0 0 0 0 1 10 0 0 0 0 0 0 0 0 0 0 0
0 0 0 0 0 0 0 49 0 5 0 4 84 98 38 5 5 2 0 0 0 0 0 0 0 0 0 0 0 0 0 0 0 0 0 0 0 0 0 0 0 0 0 0 0 0 2 0 0
0 0 0 0 0 0 2 5 0 2 4 35 91 8 1 4 5 0 3 0 1 1 0 0 0 0 0 0 0 0 0 0 0 0 0 0 0 0 0 0 0 0 0 0 0 0 0 0 2
0 0 0 0 0 0 0 0 4 0 0 5 33 2 1 5 57 40 5 4 5 5 2 0 0 0 0 0 0 0 0 0 0 0 0 0 0 0 0 0 0 0 0 0 0 0 0 0 0
0 0 0 0 0 0 0 0 4 0 0 0 3 5 5 5 4 39 45 86 65 99 22 4 0 0 0 0 0 0 0 0 0 0 0 0 0 0 0 0 0 0 0 0 0 0 0 0 0
0 0 0 0 0 0 0 0 0 0 0 3 0 0 42 8 32 4 12 64 100 83 96 5 2 5 0 0 0 0 0 0 0 0 0 0 0 0 0 0 0 0 0 0 0 0 0 0 0